Regional Weather Roundup
Issued by NWS Little Rock, AR

Home | Current Version | Previous Version | Graphics & Text | Print | Product List | Glossary On
Versions: 1 2 3 4 5 6 7 8 9 10 11 12 13 14 15 16 17 18 19 20 21 22 23 24 25 26 27 28 29 30 31 32
000
ASUS44 KLZK 110205
RWRLZK

WEATHER ROUNDUP FOR ARKANSAS
NATIONAL WEATHER SERVICE LITTLE ROCK AR
800 PM CST SAT DEC 10 2016

NOTE: "FAIR" INDICATES FEW OR NO CLOUDS BELOW 12,000 FEET WITH NO
SIGNIFICANT WEATHER AND/OR OBSTRUCTIONS TO VISIBILITY.

ARZ001-003-010-029-110300-
NORTHWEST ARKANSAS

CITY           SKY/WX    TMP DP  RH WIND       PRES   REMARKS
FAYETTEVILLE   CLOUDY    41  16  36 S16G24    30.13F
FORT SMITH     CLOUDY    45  17  32 SE8       30.21F
HARRISON       CLOUDY    35  20  54 SE14      30.18F WCI  26
BENTONVILLE    CLOUDY    43  16  33 S12       30.12F
ROGERS         CLOUDY    41  16  36 S13G18    30.12F
SILOAM SPGS    CLOUDY    43  18  36 S13G23    30.11F
HIGHFILL       CLOUDY    43  17  35 S16       30.11F
SPRINGDALE     CLOUDY    43  14  31 S16       30.14F
$$

ARZ004-005-016-110300-
NORTH CENTRAL ARKANSAS

CITY           SKY/WX    TMP DP  RH WIND       PRES   REMARKS
BATESVILLE     CLOUDY    37  23  56 SE6       30.33F
FLIPPIN        CLOUDY    37  18  44 SE7       30.22F
MTN HOME       CLOUDY    34  20  56 SE9       30.24F WCI  27
$$

ARZ040-041-110300-
WEST CENTRAL ARKANSAS

CITY           SKY/WX    TMP DP  RH WIND       PRES   REMARKS
MENA           CLOUDY    45  25  45 SE6       30.22F
MOUNT IDA      CLOUDY    43  21  41 SE9       30.24F
$$

ARZ009-017-025-026-028-110300-
NORTHEAST ARKANSAS

CITY           SKY/WX    TMP DP  RH WIND       PRES   REMARKS
CORNING        CLOUDY    34  28  80 CALM      30.35F
JONESBORO      CLOUDY    36  28  73 CALM      30.36F
NEWPORT        CLOUDY    33  28  81 MISG        N/A
WALNUT RIDGE   CLOUDY    36  25  64 SE7       30.34F
BLYTHEVILLE    CLOUDY    39  23  52 S5        30.37S
$$

ARZ022-023-033-042-044-110300-
CENTRAL ARKANSAS

CITY           SKY/WX    TMP DP  RH WIND       PRES   REMARKS
LITTLE ROCK    CLOUDY    41  27  57 SE12      30.33F
N LITTLE ROCK    N/A     40  28  62 S7        30.36F
JACKSONVILLE   CLOUDY    40  26  56 VRB3      30.32F
SEARCY         CLOUDY    38  27  64 SE8       30.34F
HOT SPRINGS    CLOUDY    44  24  45 SE7       30.30F
RUSSELLVILLE   CLOUDY    40  24  53 SE6       30.27F
CLINTON        CLOUDY    39  23  52 SE5G12    30.30F
$$

ARZ036-110300-
EAST ARKANSAS

CITY           SKY/WX    TMP DP  RH WIND       PRES   REMARKS
WEST MEMPHIS   CLOUDY    36  22  56 SE8       30.35F
$$

ARZ050-053-066-070-073-110300-
SOUTHWEST ARKANSAS

CITY           SKY/WX    TMP DP  RH WIND       PRES   REMARKS
ARKADELPHIA    CLOUDY    43  30  60 CALM      30.33F
CAMDEN         MIX PCPN  41  27  56 SE5       30.34S
TEXARKANA      CLOUDY    46  28  49 SE6       30.28F
EL DORADO      CLOUDY    42  27  55 SE7       30.33F
DE QUEEN       CLOUDY    44  29  55 E6        30.25F
$$

ARZ056-057-069-110300-
SOUTHEAST ARKANSAS

CITY           SKY/WX    TMP DP  RH WIND       PRES   REMARKS
PINE BLUFF     CLOUDY    39  32  76 SE6       30.37R
STUTTGART      MOCLDY    37  25  60 SE8       30.36F
MONTICELLO     MOCLDY    37  27  67 E3        30.35F

$$






USA.gov is the U.S. government's official web portal to all federal, state and local government web resources and services.